This is the latest recevied weather packets stored in our database for station/object CT1ETE-13. If no packets are shown the sender has not sent any weather packets the latest 10 day(s).
| Time | Temp. | Humidity | Pressure | Rain* | Wind** | Luminosity | Snow |
|---|---|---|---|---|---|---|---|
| 1788009029 | 24.44° C | 63% | 1021.2 hPa | 0 mm | - | 1378 W/m² | - |
| 1788008128 | 23.33° C | 64% | 1021.2 hPa | 0 mm | - | 1383 W/m² | - |
| 1788007226 | 23.33° C | 64% | 1021.3 hPa | 0 mm | - | 1389 W/m² | - |
| 1788006384 | 22.78° C | 64% | 1021.4 hPa | 0 mm | - | 1385 W/m² | - |
| 1788005484 | 22.78° C | 65% | 1021.4 hPa | 0 mm | - | 1433 W/m² | - |
| 1788004534 | 22.78° C | 64% | 1021.7 hPa | 0 mm | - | 1412 W/m² | - |
| 1788003618 | 22.78° C | 66% | 1021.8 hPa | 0 mm | - | 1390 W/m² | - |
| 1788002718 | 22.22° C | 67% | 1021.9 hPa | 0 mm | - | 1389 W/m² | - |
| 1788001818 | 21.67° C | 68% | 1021.9 hPa | 0 mm | - | 1387 W/m² | - |
| 1788000978 | 21.11° C | 69% | 1021.9 hPa | 0 mm | - | 1389 W/m² | - |
| 1788000021 | 20.56° C | 72% | 1021.9 hPa | 0 mm | - | 1397 W/m² | - |
| 1787999119 | 20.56° C | 73% | 1022 hPa | 0 mm | - | 1392 W/m² | - |
| 1787998275 | 20° C | 75% | 1021.9 hPa | 0 mm | - | 1401 W/m² | - |
| 1787997312 | 20° C | 74% | 1021.9 hPa | 0 mm | - | 1399 W/m² | - |
| 1787996412 | 20.56° C | 74% | 1021.9 hPa | 0 mm | - | 1406 W/m² | - |
| 1787995512 | 20° C | 72% | 1021.8 hPa | 0 mm | - | 1408 W/m² | - |
| 1787994671 | 20° C | 75% | 1021.8 hPa | 0 mm | - | 1410 W/m² | - |
| 1787993711 | 19.44° C | 77% | 1021.7 hPa | 0 mm | - | 1417 W/m² | - |
| 1787992810 | 18.89° C | 78% | 1021.6 hPa | 0 mm | - | 1417 W/m² | - |
| 1787991909 | 17.78° C | 84% | 1021.6 hPa | 0 mm | - | 1422 W/m² | - |
| 1787991008 | 17.78° C | 84% | 1021.6 hPa | 0 mm | - | 1427 W/m² | - |
| 1787990168 | 17.22° C | 85% | 1021.4 hPa | 0 mm | - | 1438 W/m² | - |
| 1787989207 | 16.67° C | 85% | 1021.3 hPa | 0 mm | - | 1443 W/m² | - |
| 1787988310 | 16.11° C | 83% | 1021.3 hPa | 0 mm | - | 1450 W/m² | - |
| 1787987407 | 15.56° C | 80% | 1021.3 hPa | 0 mm | - | 1459 W/m² | - |
* Rain latest hour (hover to see other rain measurements)
** Current wind speed in m/s (hover to see current wind gust speed)